sat.trackr.live / text

‹ back to catalog

STARLINK-2252

NORAD 48595 · 2021-041AU

PAYLOAD ACTIVE UNKNOWN

§ Identity

Operator
Country
US
Launch date
2021-05-15
Launch site
AFETR
Launch vehicle
Mass (kg)
RCS (m²)

Purposes: comms

External: N2YO · Heavens-Above · Gunter

§ Orbital elements

Epoch: 2026-09-19T15:55:37.089408Z

Period
94.01 min
Inclination
53.1626°
Eccentricity
0.0001857
Mean motion
15.31710011 rev/d
Perigee alt
469.4 km
Apogee alt
472.0 km
Semi-major
6,848.8 km
B*
1.3311e-4
RAAN
326.1837°
Arg perigee
98.7086°
Mean anomaly
261.4126°
Rev number
29,594

§ Raw data

STARLINK-22521 48595U 21041AU  26262.66362372  .00003769  00000+0  13311-3 0  99982 48595  53.1626 326.1837 0001857  98.7086 261.4126 15.31710011295946

JSON: /api/v1/satellites/48595 · /tle

For live sub-satellite position, see the globe view (requires WebGL).

§ Visibility from observer

Set your observer location to see the next 7 days of passes ≥ 10°. The values pass through the URL so the page stays shareable.

No JS? Fill the form by hand. The geolocation button needs JavaScript.